Regional Weather Roundup
Issued by NWS

Home | Current Version | Previous Version | Text Only | Print | Product List | Glossary On
Versions: 1 2 3 4 5 6 7 8 9 10 11 12 13 14 15 16 17 18 19 20 21 22 23 24 25 26 27 28 29 30 31 32 33 34 35 36 37 38 39 40 41 42 43 44 45 46 47 48 49 50
000
ASUS43 KDTX 111810
RWRMI
MICHIGAN HOURLY REGIONAL WEATHER ROUNDUP
NATIONAL WEATHER SERVICE DETROIT/PONTIAC MI
ISSUED BY NATIONAL WEATHER SERVICE GRAND RAPIDS MI
100 PM EST MON DEC 11 2017

NOTE: "FAIR" INDICATES FEW OR NO CLOUDS BELOW 12,000 FEET WITH NO
SIGNIFICANT WEATHER AND/OR OBSTRUCTION TO VISIBILITY.

MIZ047>049-052>055-059>063-066>070-074>076-081>083-111900-
SOUTHEAST LOWER MICHIGAN

CITY           SKY/WX    TMP DP  RH WIND       PRES   REMARKS
ADRIAN         CLOUDY    28  24  85 SW8       29.90F WCI  20
6HR MIN TEMP:  24; 6HR MAX TEMP:  28; 6HR PCP:  0.02;

ALMA           CLOUDY    23  21  91 SE3       29.86F
6HR MIN TEMP:  20; 6HR MAX TEMP:  23;

ANN ARBOR      CLOUDY    27  24  89 S7        29.89F WCI  19
BAD AXE        FLURRIES  20  13  75 S7        29.91F WCI  11
6HR MIN TEMP:  15; 6HR MAX TEMP:  20;

DETROIT CITY   LGT SNOW  26  23  88 SE5       29.93F FOG     WCI  20
6HR MIN TEMP:  22; 6HR MAX TEMP:  26; 6HR PCP:  0.02;

DETROIT        CLOUDY    29  24  82 S8        29.92F WCI  21
6HR MIN TEMP:  25; 6HR MAX TEMP:  29; 6HR PCP:  0.06;

FLINT          FLURRIES  25  20  81 SE8       29.89F WCI  16
6HR MIN TEMP:  19; 6HR MAX TEMP:  25; 6HR PCP:  0.05;

GROSSE ILE     CLOUDY    29  25  86 S12       29.92F WCI  19
6HR MIN TEMP:  25; 6HR MAX TEMP:  29;

HILLSDALE      CLOUDY    30  23  74 S10G16    29.84F WCI  21
HOWELL         CLOUDY    26  25  94 S7        29.87F FOG     WCI  19
6HR MIN TEMP:  21; 6HR MAX TEMP:  26;


CITY           SKY/WX    TMP DP  RH WIND       PRES   REMARKS
JACKSON        CLOUDY    29  22  75 S8        29.85F WCI  21
6HR MIN TEMP:  25; 6HR MAX TEMP:  29; 6HR PCP:  0.06;

LANSING        CLOUDY    27  25  92 S7        29.86F FOG     WCI  19
6HR MIN TEMP:  20; 6HR MAX TEMP:  27; 6HR PCP:  0.07;

MASON          CLOUDY    28  24  85 S3        29.86F FOG
6HR MIN TEMP:  23; 6HR MAX TEMP:  28;

MONROE         CLOUDY    28  24  82 S8        29.91F WCI  20
6HR MIN TEMP:  24; 6HR MAX TEMP:  28;

MT. CLEMENS    LGT SNOW  24  22  93 E7        29.91F FOG     WCI  16
6HR MIN TEMP:  19; 6HR MAX TEMP:  24; 6HR PCP:  0.02;

PONTIAC        LGT SNOW  23  20  88 SE7       29.88F FOG     WCI  15
6HR MIN TEMP:  20; 6HR MAX TEMP:  23; 6HR PCP: TRACE;

PORT HOPE        N/A     22  13  68 SW7       29.92F WCI  13
6HR MIN TEMP:  17; 6HR MAX TEMP:  23;

PORT HURON     LGT SNOW  23  16  74 SE3       29.94F
TRI CITIES     LGT SNOW  21  19  92 SE10      29.87F VSB 1   WCI  10
6HR MIN TEMP:  18; 6HR MAX TEMP:  21; 6HR PCP:  0.02;

YPSILANTI      CLOUDY    30  25  81 S9        29.91F WCI  22
6HR MIN TEMP:  26; 6HR MAX TEMP:  30; 6HR PCP: TRACE;

$$
MIZ043>046-050>051-056>058-064>065-071>073-077>080-111900-
SOUTHWEST LOWER MICHIGAN

CITY           SKY/WX    TMP DP  RH WIND       PRES   REMARKS
BATTLE CREEK   CLOUDY    29  23  78 S10       29.84F WCI  20
6HR MIN TEMP:  26; 6HR MAX TEMP:  29; 6HR PCP:  0.02;

BENTON HARBOR  CLOUDY    31  21  66 S9        29.81F WCI  23
6HR MIN TEMP:  27; 6HR MAX TEMP:  31; 6HR PCP: TRACE;

BIG RAPIDS     CLOUDY    22  19  91 SE7       29.80F FOG     WCI  13
6HR MIN TEMP:  19; 6HR MAX TEMP:  22;

COLDWATER      CLOUDY    31  23  74 S7        29.84F WCI  24
6HR MIN TEMP:  27; 6HR MAX TEMP:  31;

HOLLAND        CLOUDY    30  23  75 S9        29.81F WCI  22
6HR MIN TEMP:  26; 6HR MAX TEMP:  30; 6HR PCP:  0.02;

GRAND RAPIDS   CLOUDY    29  26  89 S13       29.82F WCI  19
6HR MIN TEMP:  23; 6HR MAX TEMP:  29; 6HR PCP:  0.07;

KALAMAZOO      CLOUDY    30  23  75 S12       29.83F WCI  20
6HR MIN TEMP:  27; 6HR MAX TEMP:  30; 6HR PCP: TRACE;

MARSHALL       CLOUDY    28  23  79 S6        29.84F WCI  22
6HR MIN TEMP:  25; 6HR MAX TEMP:  28;

MOUNT PLEASANT CLOUDY    22  17  83 SE12      29.84F FOG     WCI  10
6HR MIN TEMP:  19; 6HR MAX TEMP:  22;

MUSKEGON       LGT SNOW  30  26  85 SE13      29.79F FOG     WCI  20
6HR MIN TEMP:  24; 6HR MAX TEMP:  30; 6HR PCP:  0.10;

STURGIS        CLOUDY    30  23  75 S12G17    29.83F WCI  20
6HR MIN TEMP:  26; 6HR MAX TEMP:  30;

$$
MIZ016>042-111900-
NORTHERN LOWER MICHIGAN

CITY           SKY/WX    TMP DP  RH WIND       PRES   REMARKS
ALPENA         FLURRIES  21  13  71 S8        29.89F WCI  11
6HR MIN TEMP:  16; 6HR MAX TEMP:  21; 6HR PCP: TRACE;

BEAVER ISLAND  LGT SNOW  26  23  89 S8        29.78F WCI  17
6HR MIN TEMP:  18; 6HR MAX TEMP:  26;

BELLAIRE       LGT SNOW  22  19  91 CALM      29.83F
6HR MIN TEMP:  18; 6HR MAX TEMP:  22;

CADILLAC       FLURRIES  19  15  86 SE10      29.76F WCI   7
CHARLEVOIX     LGT SNOW  21  18  85 SE9       29.84F WCI  11
6HR MIN TEMP:  19; 6HR MAX TEMP:  22;

GAYLORD        LGT SNOW  17  13  84 S9        29.79F VSB 1   WCI   6
6HR MIN TEMP:  13; 6HR MAX TEMP:  17; 6HR PCP: TRACE;

HOUGHTON LAKE  LGT SNOW  19  14  81 SE7       29.82F WCI  10
6HR MIN TEMP:  17; 6HR MAX TEMP:  19; 6HR PCP:  0.03;

MANISTEE       FLURRIES  23  21  92 SE6       29.79F WCI  16
OSCODA         LGT SNOW  23  16  74 S8        29.89F WCI  13
6HR MIN TEMP:  15; 6HR MAX TEMP:  23;

PELLSTON       LGT SNOW  20  17  88 SE9       29.83F VSB 1   WCI   9
6HR MIN TEMP:  16; 6HR MAX TEMP:  20; 6HR PCP:  0.02;

TRAVERSE CITY  LGT SNOW  23  16  74 SE6       29.80F WCI  16
6HR MIN TEMP:  21; 6HR MAX TEMP:  23; 6HR PCP:  0.01;

LUDINGTON      CLOUDY    25  23  93 SE7       29.78F FOG     WCI  17
6HR MIN TEMP:  22; 6HR MAX TEMP:  25;

$$
MIZ007>008-015-111900-
EASTERN UPPER MICHIGAN

CITY           SKY/WX    TMP DP  RH WIND       PRES   REMARKS
KINROSS        LGT SNOW  17  14  88 E10       29.82F FOG     WCI   5
6HR MIN TEMP:   5; 6HR MAX TEMP:  17;

MACKINAC ISLAN LGT SNOW  22  17  81 S10G17    29.82F WCI  11
6HR MIN TEMP:  19; 6HR MAX TEMP:  22;

NEWBERRY       LGT SNOW  17  16  96 E5        29.77F WCI  10
6HR MIN TEMP:  12; 6HR MAX TEMP:  17;

S. S. MARIE    LGT SNOW  14  10  84 E8        29.84F VSB 3/4 WCI   3
6HR MIN TEMP:   6; 6HR MAX TEMP:  14; 6HR PCP:  0.01;

$$
MIZ004>006-011>014-085-111900-
CENTRAL UPPER MICHIGAN

CITY           SKY/WX    TMP DP  RH WIND       PRES   REMARKS
MANISTIQUE     SNOW      20  15  81 NE5       29.77F VSB 1/2 WCI  14
6HR MIN TEMP:  14; 6HR MAX TEMP:  20;

ESCANABA       LGT SNOW  25  21  85 W7        29.77F FOG     WCI  17
6HR MIN TEMP:  13; 6HR MAX TEMP:  25; 6HR PCP:  0.03;

MENOMINEE      LGT SNOW  26  23  88 SW7       29.76F FOG     WCI  18
6HR MIN TEMP:  21; 6HR MAX TEMP:  26; 6HR PCP: TRACE;

SAWYER-GWINN   LGT SNOW  19  16  86 S12       29.72F WCI   7
$$
MIZ001>003-009>011-084-111900-
WESTERN UPPER MICHIGAN

CITY           SKY/WX    TMP DP  RH WIND       PRES   REMARKS
IRON MOUNTAIN  LGT SNOW  21  17  84 S6        29.70F FOG     WCI  13
6HR MIN TEMP:  14; 6HR MAX TEMP:  21; 6HR PCP: TRACE;

HOUGHTON       FLURRIES  21  14  74 SW5       29.69F WCI  15
6HR MIN TEMP:  15; 6HR MAX TEMP:  21; 6HR PCP:  0.02;

COPPER HARBOR    N/A     22  16  78 VRB6      29.70F WCI  14
6HR MIN TEMP:  17; 6HR MAX TEMP:  23; 6HR PCP:  0.02;

IRONWOOD       FLURRIES  24  21  88 W9        29.74R WCI  14
6HR MIN TEMP:  17; 6HR MAX TEMP:  24;

$$

ABBREVIATIONS USED IN REMARKS
   TC - TEMPERATURE IN CELSIUS
  WCI - WIND CHILL INDEX
   HX - HEAT INDEX
  VSB - VISIBILITY





USA.gov is the U.S. government's official web portal to all federal, state and local government web resources and services.